TimeEST,TemperatureF,Dew PointF,Humidity,Sea Level PressureIn,VisibilityMPH,Wind Direction,Wind SpeedMPH,Gust SpeedMPH,PrecipitationIn,Events,Conditions,WindDirDegrees,DateUTC
12:54 AM,30.0,10.9,45,29.75,10.0,NNW,13.8,24.2,N/A,,Overcast,330,2013-02-17 05:54:00
2:54 AM,28.9,10.0,45,29.74,10.0,NNW,10.4,19.6,N/A,,Overcast,340,2013-02-17 07:54:00
3:54 AM,28.9,9.0,43,29.73,10.0,NNW,13.8,21.9,N/A,,Overcast,330,2013-02-17 08:54:00
4:54 AM,28.0,6.1,39,29.74,10.0,NNW,11.5,23.0,N/A,,Mostly Cloudy,330,2013-02-17 09:54:00
5:54 AM,28.0,6.1,39,29.75,10.0,NW,13.8,20.7,N/A,,Clear,320,2013-02-17 10:54:00
6:54 AM,27.0,5.0,39,29.75,10.0,NW,16.1,27.6,N/A,,Clear,320,2013-02-17 11:54:00
7:54 AM,27.0,5.0,39,29.78,10.0,NW,13.8,23.0,N/A,,Clear,310,2013-02-17 12:54:00
8:54 AM,28.0,5.0,38,29.78,10.0,NW,8.1,21.9,N/A,,Clear,310,2013-02-17 13:54:00
9:54 AM,30.0,6.1,36,29.79,10.0,NW,15.0,25.3,N/A,,Clear,320,2013-02-17 14:54:00
10:54 AM,30.0,6.1,36,29.80,10.0,NW,17.3,28.8,N/A,,Clear,310,2013-02-17 15:54:00
11:54 AM,30.0,6.1,36,29.80,10.0,NW,16.1,28.8,N/A,,Scattered Clouds,320,2013-02-17 16:54:00
12:54 PM,30.0,7.0,38,29.81,10.0,WNW,15.0,31.1,N/A,,Overcast,300,2013-02-17 17:54:00
1:54 PM,30.0,5.0,35,29.81,10.0,NW,16.1,27.6,N/A,,Overcast,310,2013-02-17 18:54:00
4:54 PM,27.0,8.1,45,29.87,9.0,WNW,15.0,28.8,0.00,Snow,Light Snow,290,2013-02-17 21:54:00
5:54 PM,28.0,7.0,41,29.90,10.0,WNW,15.0,26.5,N/A,,Partly Cloudy,300,2013-02-17 22:54:00
6:54 PM,28.0,3.9,36,29.94,10.0,NW,19.6,27.6,N/A,,Mostly Cloudy,310,2013-02-17 23:54:00
7:54 PM,26.1,1.0,34,29.97,10.0,WNW,17.3,28.8,N/A,,Partly Cloudy,290,2013-02-18 00:54:00
8:54 PM,25.0,-0.0,34,30.01,10.0,WNW,13.8,28.8,N/A,,Scattered Clouds,290,2013-02-18 01:54:00
9:54 PM,24.1,-0.0,35,30.04,10.0,WNW,17.3,36.8,N/A,,Clear,300,2013-02-18 02:54:00
10:54 PM,21.9,1.0,40,30.06,10.0,NW,15.0,28.8,N/A,,Clear,310,2013-02-18 03:54:00
11:54 PM,21.9,-0.9,37,30.09,10.0,NW,19.6,29.9,N/A,,Partly Cloudy,310,2013-02-18 04:54:00